TimeCDT,TemperatureF,Dew PointF,Humidity,Sea Level PressureIn,VisibilityMPH,Wind Direction,Wind SpeedMPH,Gust SpeedMPH,PrecipitationIn,Events,Conditions,WindDirDegrees,DateUTC
12:08 AM,68.0,44.1,42,-9999,-9999.0,South,8.1,-,N/A,,Unknown,170,2013-09-06 05:08:00
12:28 AM,66.9,44.1,44,-9999,-9999.0,South,9.2,-,N/A,,Unknown,180,2013-09-06 05:28:00
12:48 AM,69.1,42.1,38,-9999,-9999.0,South,10.4,-,N/A,,Unknown,180,2013-09-06 05:48:00
1:08 AM,69.1,41.2,36,-9999,-9999.0,South,10.4,-,N/A,,Unknown,180,2013-09-06 06:08:00
1:28 AM,69.1,40.1,35,-9999,-9999.0,South,10.4,-,N/A,,Unknown,180,2013-09-06 06:28:00
1:48 AM,70.0,41.2,35,-9999,-9999.0,South,11.5,-,N/A,,Unknown,180,2013-09-06 06:48:00
2:08 AM,-9999,-9999,N/A,-9999,-9999.0,North,-9999.0,-,N/A,,Unknown,0,2013-09-06 07:08:00
2:28 AM,69.1,41.2,36,-9999,-9999.0,South,8.1,-,N/A,,Unknown,190,2013-09-06 07:28:00
2:48 AM,68.0,40.1,36,-9999,-9999.0,South,10.4,-,N/A,,Unknown,190,2013-09-06 07:48:00
3:08 AM,68.0,40.1,36,-9999,-9999.0,South,9.2,-,N/A,,Unknown,190,2013-09-06 08:08:00
3:28 AM,66.9,39.0,36,-9999,-9999.0,SSW,9.2,-,N/A,,Unknown,200,2013-09-06 08:28:00
3:48 AM,68.0,40.1,36,-9999,-9999.0,SW,9.2,-,N/A,,Unknown,220,2013-09-06 08:48:00
4:08 AM,70.0,41.2,35,-9999,-9999.0,SSW,8.1,-,N/A,,Unknown,210,2013-09-06 09:08:00
4:28 AM,70.0,39.0,32,-9999,-9999.0,SSW,10.4,-,N/A,,Unknown,210,2013-09-06 09:28:00
4:48 AM,69.1,38.1,32,-9999,-9999.0,SSW,8.1,-,N/A,,Unknown,210,2013-09-06 09:48:00
5:08 AM,68.0,39.0,35,-9999,-9999.0,SSW,8.1,-,N/A,,Unknown,200,2013-09-06 10:08:00
5:28 AM,66.0,39.0,37,-9999,-9999.0,SSW,8.1,-,N/A,,Unknown,210,2013-09-06 10:28:00
5:48 AM,68.0,40.1,36,-9999,-9999.0,SW,9.2,-,N/A,,Unknown,220,2013-09-06 10:48:00
6:08 AM,66.0,41.2,40,-9999,-9999.0,SW,9.2,-,N/A,,Unknown,230,2013-09-06 11:08:00
6:28 AM,68.0,43.2,41,-9999,-9999.0,SW,8.1,-,N/A,,Unknown,230,2013-09-06 11:28:00
6:48 AM,69.1,43.2,39,-9999,-9999.0,SW,9.2,-,N/A,,Unknown,230,2013-09-06 11:48:00
7:08 AM,70.0,44.1,39,-9999,-9999.0,SW,9.2,-,N/A,,Unknown,230,2013-09-06 12:08:00
7:28 AM,70.0,43.2,38,-9999,-9999.0,SW,9.2,-,N/A,,Unknown,230,2013-09-06 12:28:00
7:48 AM,71.1,44.1,38,-9999,-9999.0,SW,8.1,-,N/A,,Unknown,230,2013-09-06 12:48:00
8:08 AM,72.0,45.1,38,-9999,-9999.0,WSW,6.9,-,N/A,,Unknown,240,2013-09-06 13:08:00
8:28 AM,73.9,45.1,36,-9999,-9999.0,SW,9.2,-,N/A,,Unknown,230,2013-09-06 13:28:00
8:48 AM,78.1,46.0,32,-9999,-9999.0,SW,8.1,-,N/A,,Unknown,230,2013-09-06 13:48:00
9:08 AM,79.0,47.1,32,-9999,-9999.0,SW,6.9,-,N/A,,Unknown,230,2013-09-06 14:08:00
9:28 AM,81.0,48.0,31,-9999,-9999.0,SW,6.9,-,N/A,,Unknown,230,2013-09-06 14:28:00
9:48 AM,82.9,48.0,29,-9999,-9999.0,SSW,9.2,-,N/A,,Unknown,210,2013-09-06 14:48:00
10:08 AM,84.9,48.0,28,-9999,-9999.0,SW,9.2,-,N/A,,Unknown,220,2013-09-06 15:08:00
10:28 AM,87.1,47.1,25,-9999,-9999.0,SSW,10.4,-,N/A,,Unknown,210,2013-09-06 15:28:00
10:48 AM,88.0,46.0,23,-9999,-9999.0,South,11.5,-,N/A,,Unknown,180,2013-09-06 15:48:00
11:08 AM,90.0,47.1,23,-9999,-9999.0,SSW,8.1,-,N/A,,Unknown,200,2013-09-06 16:08:00
11:28 AM,90.0,47.1,23,-9999,-9999.0,South,11.5,-,N/A,,Unknown,190,2013-09-06 16:28:00
11:48 AM,91.0,47.1,22,-9999,-9999.0,South,10.4,-,N/A,,Unknown,190,2013-09-06 16:48:00
12:08 PM,93.0,47.1,21,-9999,-9999.0,South,10.4,-,N/A,,Unknown,180,2013-09-06 17:08:00
12:28 PM,93.0,48.0,21,-9999,-9999.0,South,10.4,-,N/A,,Unknown,170,2013-09-06 17:28:00
12:48 PM,95.0,46.0,19,-9999,-9999.0,South,11.5,-,N/A,,Unknown,170,2013-09-06 17:48:00
1:08 PM,96.1,46.0,18,-9999,-9999.0,South,12.7,-,N/A,,Unknown,170,2013-09-06 18:08:00
1:28 PM,96.1,47.1,19,-9999,-9999.0,SSE,11.5,-,N/A,,Unknown,150,2013-09-06 18:28:00
1:48 PM,96.1,44.1,17,-9999,-9999.0,SSE,15.0,-,N/A,,Unknown,160,2013-09-06 18:48:00
2:08 PM,96.1,46.0,18,-9999,-9999.0,South,13.8,-,N/A,,Unknown,170,2013-09-06 19:08:00
2:28 PM,97.0,47.1,18,-9999,-9999.0,South,13.8,-,N/A,,Unknown,170,2013-09-06 19:28:00
2:48 PM,96.1,46.0,18,-9999,-9999.0,SSE,11.5,-,N/A,,Unknown,160,2013-09-06 19:48:00
3:08 PM,96.1,45.1,17,-9999,-9999.0,South,16.1,-,N/A,,Unknown,180,2013-09-06 20:08:00
3:28 PM,96.1,45.1,17,-9999,-9999.0,South,12.7,-,N/A,,Unknown,170,2013-09-06 20:28:00
3:48 PM,97.0,47.1,18,-9999,-9999.0,South,16.1,-,N/A,,Unknown,170,2013-09-06 20:48:00
4:08 PM,97.0,48.0,19,-9999,-9999.0,SSE,12.7,-,N/A,,Unknown,150,2013-09-06 21:08:00
4:28 PM,97.0,47.1,18,-9999,-9999.0,South,11.5,-,N/A,,Unknown,180,2013-09-06 21:28:00
4:48 PM,96.1,45.1,17,-9999,-9999.0,South,12.7,-,N/A,,Unknown,190,2013-09-06 21:48:00
5:08 PM,96.1,48.0,19,-9999,-9999.0,SSE,13.8,-,N/A,,Unknown,150,2013-09-06 22:08:00
5:28 PM,96.1,47.1,19,-9999,-9999.0,South,11.5,-,N/A,,Unknown,170,2013-09-06 22:28:00
5:48 PM,95.0,47.1,19,-9999,-9999.0,South,10.4,-,N/A,,Unknown,170,2013-09-06 22:48:00
6:08 PM,95.0,49.1,21,-9999,-9999.0,SSE,9.2,-,N/A,,Unknown,160,2013-09-06 23:08:00
6:28 PM,93.9,49.1,22,-9999,-9999.0,SSE,8.1,-,N/A,,Unknown,160,2013-09-06 23:28:00
6:48 PM,93.0,50.2,23,-9999,-9999.0,South,6.9,-,N/A,,Unknown,170,2013-09-06 23:48:00
7:08 PM,91.9,50.2,24,-9999,-9999.0,South,8.1,-,N/A,,Unknown,170,2013-09-07 00:08:00
7:28 PM,89.1,51.1,27,-9999,-9999.0,SSE,6.9,-,N/A,,Unknown,160,2013-09-07 00:28:00
7:48 PM,84.0,52.2,33,-9999,-9999.0,SSE,6.9,-,N/A,,Unknown,160,2013-09-07 00:48:00
8:08 PM,80.1,52.2,38,-9999,-9999.0,SSE,5.8,-,N/A,,Unknown,160,2013-09-07 01:08:00
8:28 PM,78.1,52.2,40,-9999,-9999.0,SSE,8.1,-,N/A,,Unknown,160,2013-09-07 01:28:00
8:48 PM,77.0,51.1,40,-9999,-9999.0,SSE,8.1,-,N/A,,Unknown,160,2013-09-07 01:48:00
9:08 PM,75.0,51.1,43,-9999,-9999.0,SSE,8.1,-,N/A,,Unknown,160,2013-09-07 02:08:00
9:28 PM,75.0,50.2,42,-9999,-9999.0,SSE,9.2,-,N/A,,Unknown,160,2013-09-07 02:28:00
9:48 PM,75.0,49.1,40,-9999,-9999.0,South,8.1,-,N/A,,Unknown,170,2013-09-07 02:48:00
10:08 PM,73.9,49.1,41,-9999,-9999.0,South,8.1,-,N/A,,Unknown,170,2013-09-07 03:08:00
10:28 PM,73.0,49.1,43,-9999,-9999.0,South,9.2,-,N/A,,Unknown,170,2013-09-07 03:28:00
10:48 PM,73.0,49.1,43,-9999,-9999.0,South,9.2,-,N/A,,Unknown,170,2013-09-07 03:48:00
11:08 PM,72.0,49.1,44,-9999,-9999.0,South,8.1,-,N/A,,Unknown,180,2013-09-07 04:08:00
11:28 PM,72.0,50.2,46,-9999,-9999.0,South,8.1,-,N/A,,Unknown,180,2013-09-07 04:28:00
11:48 PM,73.0,49.1,43,-9999,-9999.0,South,8.1,-,N/A,,Unknown,180,2013-09-07 04:48:00